[[[{"header":{"parameterUnit":"kt","parameterCategory":2,"dx":1,"dy":1,"la1":30.253999710083008,"la2":30.299108505249023,"lo1":-89.0895004272461,"lo2":-89.04439544677734,"nx":28,"ny":28,"refTime":"2022-10-31T21:00:00:Z","depth":0,"parameterNumber":1,"parameterNumberName":"U-component_of_WINDS"},"data":[2.4763,2.4828,2.4864,2.4954,2.5002,2.5069,2.5104,2.5154,2.5202,2.5285,2.5338,2.5381,2.5443,2.5514,2.5573,2.5591,2.5613,2.5608,2.5629,2.562,2.5621,2.5622,2.561,2.5612,2.5612,2.5633,2.5634,2.5634,2.4746,2.4794,2.4853,2.4935,2.4986,2.5011,2.5078,2.5118,2.5178,2.5238,2.5294,2.537,2.5435,2.5501,2.5568,2.5597,2.5613,2.5613,2.5611,2.562,2.5612,2.5598,2.5598,2.5598,2.5598,2.5598,2.5598,2.5598,2.4725,2.4763,2.4835,2.49,2.4952,2.5006,2.5049,2.5102,2.516,2.5237,2.527,2.5338,2.5406,2.5507,2.555,2.5603,2.561,2.5621,2.5624,2.5626,2.5622,2.5583,2.5616,2.5616,2.5616,2.5617,2.5617,0,2.4721,2.4749,2.481,2.4881,2.4931,2.499,2.5051,2.5078,2.5152,2.5197,2.5265,2.5311,2.5399,2.5467,2.554,2.5584,2.5617,2.5625,2.5632,2.5617,2.5592,2.5604,2.5588,2.5624,2.5624,2.5624,2.5624,2.5625,2.4701,2.4743,2.4838,2.4875,2.4919,2.4979,2.5022,2.5086,2.5128,2.5212,2.5242,2.5311,2.5371,2.5473,2.5535,2.5602,2.5619,2.5628,2.5629,2.5611,2.5618,2.5614,2.5618,2.5627,2.5627,2.5626,2.5626,0,2.4685,2.4749,2.4827,2.4918,2.4942,2.4982,2.506,2.5101,2.515,2.5213,2.5231,2.5308,2.5374,2.5436,2.5525,2.5555,2.5616,2.5631,2.5592,2.5598,2.5611,2.5609,2.5649,2.5657,2.5656,2.5656,2.5656,0,2.4693,2.4747,2.4838,2.488,2.494,2.5004,2.5061,2.511,2.5173,2.5223,2.5272,2.5317,2.5391,2.5446,2.5491,2.5552,2.557,2.5596,2.5608,2.5592,2.5589,2.5617,2.5616,2.5634,2.5634,2.5634,2.5634,0,2.4662,2.4776,2.4845,2.4881,2.4986,2.5016,2.5061,2.5133,2.5176,2.5241,2.5269,2.5341,2.538,2.5433,2.5491,2.5489,2.5568,2.5578,2.5596,2.5594,2.5612,2.561,2.5628,2.5633,2.5633,2.5633,2.5633,0,2.468,2.4747,2.4838,2.4926,2.4954,2.5,2.5075,2.5129,2.5202,2.5234,2.5287,2.5328,2.539,2.5394,2.5479,2.546,2.5494,2.5526,2.5529,2.5539,2.5543,2.5544,2.5556,2.5559,2.5545,2.5544,2.5544,0,2.4625,2.4736,2.4794,2.488,2.494,2.4992,2.5043,2.5108,2.5156,2.5213,2.5265,2.533,2.5348,2.5377,2.5411,2.5468,2.5492,2.5467,2.5544,2.5546,2.5522,2.5534,2.5521,2.5546,2.5535,2.5536,2.5537,0,2.4592,2.4723,2.4735,2.4779,2.4878,2.493,2.499,2.507,2.5104,2.5173,2.5224,2.5318,2.5334,2.5383,2.5426,2.5457,2.5477,2.5471,2.5474,2.5469,2.5538,2.5524,2.5528,2.5498,2.5499,2.55,2.553,0,2.4599,2.4666,2.4701,2.48,2.4851,2.4911,2.4982,2.5026,2.5061,2.5113,2.5189,2.5263,2.5345,2.5368,2.5405,2.5458,2.546,2.5477,2.5488,2.5495,2.5507,2.5512,2.5464,2.5465,2.5466,2.5466,0,0,2.453,2.4628,2.4693,2.4756,2.4803,2.486,2.4916,2.4969,2.5074,2.5104,2.511,2.5254,2.5315,2.5401,2.5409,2.5443,2.5458,2.5455,2.5492,2.5494,2.5497,2.5508,2.5512,2.5467,2.5468,2.5468,2.5468,0,2.4549,2.4611,2.4668,2.4726,2.4814,2.4867,2.488,2.4978,2.5014,2.5093,2.5138,2.5194,2.531,2.5366,2.541,2.5445,2.5477,2.5465,2.5459,2.5495,2.5497,2.5499,2.551,2.5513,2.5469,2.5469,2.5469,0,2.4528,2.4601,2.4637,2.4751,2.481,2.4872,2.49,2.4967,2.5013,2.5074,2.5152,2.5202,2.5286,2.536,2.5396,2.5403,2.549,2.5477,2.5475,2.5481,2.552,2.5521,2.5523,2.55,2.55,2.55,0,0,2.4534,2.4598,2.4699,2.4761,2.4794,2.4875,2.4917,2.4959,2.5034,2.5064,2.5131,2.5201,2.5269,2.5313,2.5381,2.5453,2.5474,2.5478,2.5476,2.5475,2.548,2.5518,2.552,2.5499,2.5499,2.5499,0,0,2.4537,2.4657,2.4681,2.4763,2.4832,2.4936,2.497,2.5003,2.5072,2.5074,2.5148,2.5171,2.5242,2.5291,2.5272,2.5386,2.5395,2.5401,2.5352,2.5351,2.535,2.5337,2.5313,0,0,0,0,0,2.4595,2.4642,2.4663,2.4688,2.4834,2.4924,2.4943,2.5006,2.501,2.5035,2.5096,2.5129,2.5295,2.528,2.5303,2.5324,2.5489,2.5491,2.5493,2.5447,2.5445,2.5444,0,0,0,0,0,0,2.4606,2.4636,2.4662,2.4766,2.48,2.4923,2.4943,2.4962,2.5009,2.5014,2.5116,2.5132,2.5187,2.5273,2.5293,2.5311,2.5306,2.549,2.5492,2.5493,2.5446,2.5445,2.5444,0,0,0,0,0,2.4614,2.4639,2.4857,2.4766,2.4795,2.489,2.4942,2.4958,2.4995,2.5092,2.5109,2.5039,2.5186,2.5207,2.5285,2.5301,2.5293,2.53,2.5491,2.5492,2.5493,2.5445,0,0,0,0,0,0,2.4621,2.4653,2.4864,2.4875,2.4755,2.4884,2.4907,2.4954,2.5072,2.5089,2.5018,2.5021,2.5186,2.5202,2.5218,2.5293,2.5282,2.529,2.5294,2.5492,2.5493,2.5494,0,0,0,0,0,0,2.4641,2.4662,2.487,2.4852,2.4862,2.4878,2.4899,2.4975,2.5072,2.4992,2.4997,2.5018,2.5162,2.5199,2.5211,2.5328,2.5274,2.5281,2.5286,2.5289,2.5493,2.5493,0,0,0,0,0,0,2.4651,2.467,2.485,2.4857,2.4866,2.4995,2.4947,2.5093,2.5057,2.4985,2.5056,2.5055,2.5157,2.5172,2.5207,2.5318,2.5326,2.5274,2.5279,2.5282,2.5284,0,0,0,0,0,0,0,2.4659,2.4519,2.4798,2.4861,2.4869,2.4978,2.4981,2.4984,2.5057,2.5056,2.5056,2.5055,2.5234,2.5242,2.525,2.5309,0,0,2.5273,2.5277,0,0,0,0,0,0,0,0,2.4513,2.4518,2.4799,2.4801,2.4803,2.4979,2.4981,2.4983,2.5057,2.5056,2.5056,2.5056,2.5236,2.5242,2.5249,0,0,0,0,0,0,0,0,0,0,0,0,0,0,0,2.4799,2.4801,0,2.4979,2.4981,2.4983,2.5057,2.5057,2.5056,2.5056,2.5238,2.5243,2.5248,0,0,0,0,0,0,0,0,0,0,0,0,0,0,0,0,0,0,0,0,0,0,0,0,0,0,0,0,0,0,0,0,0,0,0,0,0,0,0,0,0,0,0,0,0,0,0,0,0,0,0,0,0,0,0,0,0,0,0,0,0,0,0,0,0,0,0,0,0]}],[{"header":{"parameterUnit":"kt","parameterCategory":2,"dx":1,"dy":1,"la1":30.253999710083008,"la2":30.299108505249023,"lo1":-89.0895004272461,"lo2":-89.04439544677734,"nx":28,"ny":28,"refTime":"2022-10-31T21:00:00:Z","depth":0,"parameterNumber":2,"parameterNumberName":"V-component_of_WINDS"},"data":[1.8569,1.8535,1.8494,1.8435,1.8388,1.834,1.8309,1.8264,1.8217,1.8153,1.8108,1.8062,1.7997,1.7931,1.7878,1.7858,1.7837,1.7855,1.7827,1.7787,1.7778,1.777,1.7774,1.7853,1.7853,1.7874,1.7874,1.7874,1.8541,1.8495,1.8453,1.8383,1.8345,1.8303,1.8243,1.8213,1.8171,1.8114,1.8068,1.8007,1.7953,1.788,1.782,1.78,1.7774,1.7786,1.7785,1.7774,1.7731,1.7736,1.7808,1.7808,1.7808,1.7808,1.7808,1.7808,1.8478,1.846,1.8393,1.8346,1.83,1.8253,1.8228,1.8171,1.8128,1.8062,1.802,1.7971,1.7903,1.781,1.7768,1.7726,1.7704,1.7703,1.7701,1.7701,1.7706,1.7675,1.7714,1.7714,1.7713,1.7713,1.7713,0,1.8417,1.8383,1.834,1.8284,1.8248,1.82,1.8149,1.8132,1.8044,1.8012,1.7961,1.7924,1.7851,1.7796,1.7731,1.7686,1.7634,1.7626,1.7623,1.7641,1.7665,1.7647,1.7574,1.7624,1.7623,1.7622,1.7622,1.7621,1.8346,1.8331,1.8242,1.8217,1.8178,1.814,1.8107,1.8031,1.8,1.7925,1.7911,1.7857,1.7809,1.7733,1.7664,1.7608,1.7582,1.7605,1.7573,1.7591,1.7576,1.7576,1.7572,1.7611,1.7613,1.7614,1.7614,0,1.8309,1.8241,1.8204,1.8116,1.8093,1.8081,1.8004,1.7983,1.793,1.7892,1.7879,1.7795,1.7745,1.7672,1.7601,1.7564,1.7536,1.7514,1.7558,1.7548,1.7558,1.7557,1.7612,1.7613,1.7536,1.7537,1.7537,0,1.8219,1.8203,1.81,1.8083,1.8062,1.7985,1.7966,1.7918,1.786,1.7829,1.7761,1.7734,1.7645,1.7606,1.7552,1.7517,1.7505,1.7472,1.7457,1.7476,1.748,1.7454,1.7449,1.7429,1.7429,1.7429,1.7429,0,1.8164,1.8092,1.8064,1.8036,1.794,1.7928,1.7888,1.7822,1.7791,1.7739,1.7717,1.7663,1.7632,1.7589,1.7519,1.75,1.7477,1.7435,1.7443,1.7444,1.7438,1.7439,1.751,1.7429,1.7428,1.7428,1.7428,0,1.8079,1.803,1.8002,1.7918,1.7902,1.7885,1.7825,1.7793,1.7729,1.7693,1.7652,1.7596,1.7564,1.7527,1.7478,1.7472,1.7445,1.7412,1.7411,1.74,1.736,1.7404,1.7483,1.7486,1.7394,1.7394,1.7393,0,1.8033,1.7986,1.792,1.7894,1.7861,1.7785,1.7763,1.7709,1.766,1.7624,1.7569,1.7529,1.7486,1.7463,1.745,1.739,1.7398,1.7387,1.733,1.7328,1.7345,1.7418,1.7445,1.7475,1.7389,1.7389,1.739,0,1.7988,1.7873,1.7873,1.7836,1.7754,1.7727,1.7704,1.7647,1.7626,1.7575,1.7549,1.7494,1.7457,1.7421,1.737,1.7359,1.739,1.7322,1.7319,1.7333,1.7382,1.7408,1.7413,1.7358,1.7358,1.7359,1.7386,0,1.7866,1.7835,1.7834,1.7759,1.7727,1.7709,1.7631,1.7608,1.7562,1.751,1.7475,1.7412,1.7353,1.7342,1.7297,1.7299,1.7286,1.7249,1.7204,1.7255,1.7261,1.7264,1.72,1.7199,1.7197,1.7196,0,0,1.7836,1.7789,1.7718,1.7692,1.766,1.7581,1.7567,1.7527,1.7449,1.7427,1.7403,1.7314,1.7264,1.7229,1.7239,1.7217,1.7208,1.7194,1.7232,1.7237,1.7241,1.7249,1.7254,1.7193,1.7193,1.7192,1.7192,0,1.7774,1.7729,1.7717,1.7673,1.7604,1.755,1.7548,1.7465,1.7431,1.7399,1.7331,1.7301,1.7235,1.7188,1.7156,1.7198,1.7147,1.7187,1.7233,1.7221,1.7227,1.7232,1.7243,1.7248,1.7188,1.7189,1.7189,0,1.7712,1.7652,1.764,1.7567,1.7521,1.7491,1.7426,1.7398,1.7374,1.7287,1.7255,1.7209,1.7142,1.7121,1.7109,1.7086,1.7095,1.7081,1.7088,1.7083,1.7067,1.7075,1.7082,1.6989,1.6989,1.6989,0,0,1.7669,1.764,1.7552,1.7547,1.7523,1.7443,1.742,1.7371,1.7314,1.7292,1.7232,1.7177,1.7136,1.7111,1.707,1.7059,1.7036,1.7059,1.7069,1.7077,1.7077,1.7063,1.7071,1.6987,1.6987,1.6987,0,0,1.7648,1.7545,1.7508,1.7494,1.7443,1.7354,1.7353,1.7306,1.7261,1.7254,1.717,1.7152,1.7131,1.7089,1.7079,1.7051,1.701,1.7011,1.7079,1.709,1.7099,1.7108,1.7002,0,0,0,0,0,1.7544,1.7557,1.7526,1.7512,1.7419,1.7372,1.7359,1.729,1.7261,1.7262,1.7204,1.7153,1.7065,1.7054,1.7041,1.7052,1.6969,1.6972,1.6975,1.706,1.7072,1.7083,0,0,0,0,0,0,1.7538,1.7522,1.7525,1.7439,1.7417,1.7371,1.7306,1.7287,1.7259,1.725,1.7166,1.715,1.709,1.7056,1.7046,1.7057,1.7005,1.697,1.6973,1.6975,1.7064,1.7074,1.7083,0,0,0,0,0,1.7533,1.752,1.739,1.7438,1.7419,1.733,1.7305,1.7289,1.7266,1.7177,1.716,1.7216,1.7092,1.7078,1.705,1.7064,1.7012,1.7008,1.6972,1.6974,1.6976,1.7069,0,0,0,0,0,0,1.7529,1.7504,1.7384,1.7376,1.7428,1.7331,1.7314,1.7291,1.7193,1.7176,1.7223,1.7216,1.7094,1.7083,1.7073,1.707,1.7018,1.7014,1.7011,1.6973,1.6975,1.6977,0,0,0,0,0,0,1.7511,1.7498,1.738,1.7371,1.7361,1.7332,1.7317,1.7283,1.7192,1.7244,1.7235,1.7221,1.7109,1.7086,1.7078,1.7028,1.7022,1.7018,1.7016,1.7014,1.6975,1.6976,0,0,0,0,0,0,1.7504,1.7492,1.7373,1.7365,1.7356,1.7257,1.7301,1.721,1.7187,1.7249,1.7182,1.7181,1.7114,1.7104,1.7082,1.7036,1.703,1.7022,1.7019,1.7018,1.7016,0,0,0,0,0,0,0,1.7498,1.7591,1.7434,1.736,1.7352,1.7299,1.7296,1.7294,1.7186,1.7185,1.7183,1.7181,1.7043,1.7039,1.7035,1.7043,0,0,1.7022,1.702,0,0,0,0,0,0,0,0,1.7594,1.7592,1.7434,1.7432,1.743,1.7298,1.7296,1.7295,1.7186,1.7185,1.7183,1.7182,1.7042,1.7039,1.7035,0,0,0,0,0,0,0,0,0,0,0,0,0,0,0,1.7434,1.7432,0,1.7298,1.7296,1.7295,1.7186,1.7185,1.7184,1.7182,1.7041,1.7038,1.7036,0,0,0,0,0,0,0,0,0,0,0,0,0,0,0,0,0,0,0,0,0,0,0,0,0,0,0,0,0,0,0,0,0,0,0,0,0,0,0,0,0,0,0,0,0,0,0,0,0,0,0,0,0,0,0,0,0,0,0,0,0,0,0,0,0,0,0,0,0]}]]]